Regional Weather Roundup
Issued by NWS

Home | Current Version | Previous Version | Graphics & Text | Print | Product List | Glossary On
Versions: 1 2 3 4 5 6 7 8 9 10 11 12 13 14 15 16 17 18 19 20 21 22 23 24 25 26 27 28 29 30 31 32 33 34 35 36 37 38 39 40 41 42 43 44 45 46 47 48 49 50
000
ASUS43 KOAX 200002
RWRNE

WEATHER ROUNDUP FOR NEBRASKA
NATIONAL WEATHER SERVICE OMAHA NE
700 PM CDT TUE AUG 19 2014

NOTES: SATELLITE DATA IS BEING USED TO AUGMENT CLOUD COVER ABOVE
       12000 FEET.
       "FAIR" INDICATES FEW OR NO CLOUDS BELOW 12,000 FEET WITH NO
       SIGNIFICANT WEATHER AND/OR OBSTRUCTIONS TO VISIBILITY.

  * THESE STATIONS DO NOT REPORT WEATHER SUCH AS RAIN...SNOW OR FOG.

NEZ001>004-019>022-054>056-200100-
NEBRASKA PANHANDLE

CITY           SKY/WX    TMP DP  RH WIND       PRES   REMARKS
SCOTTSBLUFF    TSTM      76  56  49 E21       29.82F
6HR MIN TEMP:  76; 6HR MAX TEMP:  96; 6HR PCP:  0.02;

ALLIANCE       PTSUNNY   85  52  32 S15       29.80R
6HR MIN TEMP:  85; 6HR MAX TEMP:  94;

CHADRON        MOSUNNY   94  40  15 SW5       29.70F HX  90
6HR MIN TEMP:  90; 6HR MAX TEMP:  99;

KIMBALL        CLOUDY    73  49  42 NW18G28   29.86F THUNDER
SIDNEY         CLOUDY    85  54  34 SE13      29.83F
6HR MIN TEMP:  85; 6HR MAX TEMP:  94;

$$

NEZ057>060-069>072-079>082-200100-
SOUTHWEST NEBRASKA

CITY           SKY/WX    TMP DP  RH WIND       PRES   REMARKS
NORTH PLATTE   SUNNY     83  67  58 E18       29.76F
6HR MIN TEMP:  83; 6HR MAX TEMP:  90;

IMPERIAL       MOSUNNY   89  58  34 SE10      29.76F
6HR MIN TEMP:  84; 6HR MAX TEMP:  93;

LEXINGTON      SUNNY     86  69  57 SE8       29.77F HX  90
MCCOOK         SUNNY     92  62  36 E18       29.74F HX  92
6HR MIN TEMP:  87; 6HR MAX TEMP:  95;

OGALLALA       PTSUNNY   87  57  36 SE10      29.77F
$$

NEZ005>010-023>029-035>040-094-200100-
NORTH CENTRAL NEBRASKA

CITY           SKY/WX    TMP DP  RH WIND       PRES   REMARKS
VALENTINE      PTSUNNY   87  61  41 SE15      29.77F
6HR MIN TEMP:  86; 6HR MAX TEMP:  92;

AINSWORTH      PTSUNNY   82  63  52 SE9       29.80S
BROKEN BOW     PTSUNNY   84  68  58 SE10      29.79F
6HR MIN TEMP:  84; 6HR MAX TEMP:  88;

O`NEILL        MOSUNNY   82  67  59 SE9       29.80F
ORD            PTSUNNY   82  68  62 SE7       29.78F
6HR MIN TEMP:  82; 6HR MAX TEMP:  86;

THEDFORD       PTSUNNY   86  64  47 SE15      29.80S
$$

NEZ041-046>049-061>064-073>077-083>087-200100-
SOUTH CENTRAL NEBRASKA

CITY           SKY/WX    TMP DP  RH WIND       PRES   REMARKS
GRAND ISLAND   SUNNY     85  71  63 SE8       29.79F HX  90
6HR MIN TEMP:  83; 6HR MAX TEMP:  88;

AURORA         SUNNY     85  71  61 SE5       29.79F HX  90
HASTINGS       SUNNY     87  64  46 SE8       29.79F
6HR MIN TEMP:  84; 6HR MAX TEMP:  88;

HEBRON         SUNNY     87  67  52 S5        29.78F HX  90
HOLDREGE       SUNNY     86  66  51 SE8       29.77F
KEARNEY *      SUNNY     84  68  58 E9        29.79F
$$

NEZ011>018-030>034-042>045-200100-
NORTHEAST NEBRASKA

CITY           SKY/WX    TMP DP  RH WIND       PRES   REMARKS
NORFOLK        SUNNY     83  64  52 S10       29.79S
6HR MIN TEMP:  82; 6HR MAX TEMP:  87; 6HR PCP: TRACE;

ALBION         SUNNY     82  66  57 SE7       29.80F
BLAIR          SUNNY     84  65  53 E3        29.80F
COLUMBUS *     SUNNY     84  68  58 SE5       29.80F
FREMONT        SUNNY     86  63  46 CALM      29.79F
TEKAMAH        SUNNY     85  66  53 E3        29.78F
6HR MIN TEMP:  84; 6HR MAX TEMP:  88;

WAYNE          SUNNY     81  70  70 SE6       29.80S
$$

NEZ050>053-065>068-078-088>093-200100-
SOUTHEAST NEBRASKA

CITY           SKY/WX    TMP DP  RH WIND       PRES   REMARKS
LINCOLN        SUNNY     88  66  48 NE8       29.78F HX  90
6HR MIN TEMP:  87; 6HR MAX TEMP:  93;

OMAHA EPPLEY   MOSUNNY   86  64  47 E7        29.78F
6HR MIN TEMP:  86; 6HR MAX TEMP:  90;

BEATRICE       SUNNY     89  71  55 E3        29.78S HX  95
FALLS CITY     SUNNY     87  75  67 E7        29.78S HX  96
6HR MIN TEMP:  87; 6HR MAX TEMP:  91;

NEBRASKA CITY  SUNNY     83  69  62 SE3       29.79F
PLATTSMOUTH    SUNNY     85  65  50 E3        29.79F
$$

NEZ044-045-051>053-067-200100-
OMAHA AREA

CITY           SKY/WX    TMP DP  RH WIND       PRES   REMARKS
OMAHA EPPLEY   MOSUNNY   86  64  47 E7        29.78F
6HR MIN TEMP:  86; 6HR MAX TEMP:  90;

BLAIR          SUNNY     84  65  53 E3        29.80F
FREMONT        SUNNY     86  63  46 CALM      29.79F
MILLARD        SUNNY     87  67  51 SE7       29.78S
OFFUTT AFB     SUNNY     84  71  65 E6        29.78F HX  90
PLATTSMOUTH    SUNNY     85  65  50 E3        29.79F
WAHOO          FAIR      85  64  48 CALM      29.79S
$$



USA.gov is the U.S. government's official web portal to all federal, state and local government web resources and services.